Simultaneous Nadir Overpasses (SNOs) Predictions

Prediction of SNOs between GOES-16 and TERRA Satellite Orbit:

Table of predicted SNOs for the next 14.0 days since TLE Epoch: 3/23/2019
Index Date Time (GOES-16) GOES-16 Lat,Lon TERRA Lat,Lon Distance(km) Time Diff (sec)
1 03/23/2019 15:14:42 0.02, -75.21 -0.93, -70.86 495.11 80
2 03/24/2019 03:36:06 -0.02, -75.20 -0.19, -76.05 97.01 80
3 03/26/2019 03:21:14 -0.02, -75.21 0.41, -73.09 240.48 80
4 03/26/2019 15:45:10 0.02, -75.23 0.65, -78.25 343.42 80
5 03/28/2019 15:32:58 0.02, -75.25 0.04, -75.29 5.27 80
6 03/30/2019 15:20:46 0.02, -75.27 -0.59, -72.33 333.91 80
7 03/31/2019 03:42:10 -0.02, -75.26 -0.52, -77.52 257.53 80
8 04/02/2019 03:27:18 -0.01, -75.29 0.13, -74.56 82.32 80
9 04/04/2019 03:15:06 -0.01, -75.33 0.79, -71.61 422.99 80
10 04/04/2019 15:36:21 0.01, -75.35 0.31, -76.76 160.20 80




NCC Satellite Simultaneous Nadir Overpasses (SNOs) Prediction Service
